Weather History for Laramie, WY

Change the Weather History Date:

Sunday, February 10, 2013

  Actual Average Record
Temperature  
Mean Temperature 8 °F 22 °F  
Max Temperature 19 °F 34 °F 58 °F (1951)
Min Temperature -3 °F 11 °F -22 °F (1986)
Degree Days  
Heating Degree Days 57 43  
Month to date heating degree days 379 430  
Since 1 July heating degree days 5040 5445  
Cooling Degree Days 0 0  
Month to date cooling degree days 0 0  
Year to date cooling degree days 0 0  
Moisture  
Dew Point 12 °F    
Average Humidity 83    
Maximum Humidity 92    
Minimum Humidity 73    
Precipitation  
Precipitation T in 0.01 in 0.42 in (1993)
Month to date precipitation 0.03 0.11  
Year to date precipitation 0.18 0.38  
Sea Level Pressure  
Sea Level Pressure 29.76 in    
Wind  
Wind Speed 15 mph (NW)    
Max Wind Speed 26 mph    
Max Gust Speed 31 mph    
Visibility 4 miles    
Events Snow    
T = Trace of Precipitation, MM = Missing Value Source: NWS Daily Summary

Daily Weather History Graph

Daily Weather History Graph

Search for Another Location

Airport:

Trip Planner

Search our weather history database for the weather conditions in past years. The results will help you decide how hot, cold, wet, or windy it might be!

Date:

Astronomy

Feb. 10, 2013 Rise Set
Actual Time 7:03 AM MST 5:30 PM MST
Civil Twilight 6:34 AM MST 5:59 PM MST
Nautical Twilight 6:02 AM MST 6:32 PM MST
Astronomical Twilight 5:30 AM MST 7:04 PM MST
Moon 6:54 AM MST (2/10) 6:25 PM MST (2/10)
Length of Visible Light 11h 24m
Length of Day
10h 27m
New Moon, 0% of the Moon is Illuminated
Feb 10
New Moon
Feb 17
First Quarter
Feb 25
Full
Mar 4
Last Quarter
Mar 11
New

Hourly Weather History & Observations

Time (MST) Temp. Windchill Dew Point Humidity Pressure Visibility Wind Dir Wind Speed Gust Speed Precip Events Conditions
12:05 AM 17.6 °F 0.9 °F 15.8 °F 93% 29.56 in 4.0 mi NW 20.7 mph - 0.00 in Snow Light Snow
12:16 AM 17.6 °F 1.3 °F 15.8 °F 93% 29.56 in 7.0 mi NW 19.6 mph - 0.00 in Snow Light Snow
12:28 AM 17.6 °F 1.3 °F 15.8 °F 93% 29.56 in 1.8 mi NW 19.6 mph - 0.00 in Snow Light Snow
12:41 AM 17.6 °F 1.3 °F 15.8 °F 93% 29.56 in 1.5 mi NW 19.6 mph - 0.00 in Snow Light Snow
12:53 AM 18.0 °F 1.3 °F 15.1 °F 88% 29.64 in 1.5 mi NW 20.7 mph - 0.00 in Snow Light Snow
1:34 AM 17.6 °F 0.5 °F 15.8 °F 93% 29.57 in 3.0 mi NW 21.9 mph - 0.00 in Snow Light Snow
1:51 AM 17.6 °F 1.3 °F 15.8 °F 93% 29.57 in 6.0 mi NW 19.6 mph - 0.00 in Snow Light Snow
1:53 AM 17.1 °F 0.6 °F 15.1 °F 92% 29.68 in 6.0 mi NW 19.6 mph - 0.00 in Snow Light Snow
2:21 AM 17.6 °F 0.1 °F 15.8 °F 93% 29.58 in 2.5 mi NW 23.0 mph - 0.00 in Snow Light Snow
2:53 AM 18.0 °F 1.7 °F 15.1 °F 88% 29.67 in 2.5 mi NW 19.6 mph - 0.00 in Snow Light Snow
3:01 AM 17.6 °F 0.1 °F 15.8 °F 93% 29.58 in 3.0 mi NW 23.0 mph 27.6 mph 0.00 in Snow Light Snow
3:10 AM 17.6 °F 0.5 °F 15.8 °F 93% 29.58 in 2.5 mi NW 21.9 mph - 0.00 in Snow Light Snow
3:36 AM 17.6 °F 0.9 °F 15.8 °F 93% 29.58 in 1.8 mi NW 20.7 mph - 0.00 in Snow Light Snow
3:45 AM 17.6 °F 0.9 °F 15.8 °F 93% 29.58 in 2.0 mi NW 20.7 mph - 0.00 in Snow Light Snow
3:53 AM 17.1 °F 0.6 °F 15.1 °F 92% 29.68 in 2.5 mi NW 19.6 mph - 0.00 in Snow Light Snow
4:22 AM 17.6 °F 0.1 °F 15.8 °F 93% 29.59 in 2.5 mi NW 23.0 mph - 0.00 in Snow Light Snow
4:44 AM 17.6 °F -0.3 °F 15.8 °F 93% 29.60 in 2.5 mi NW 24.2 mph 31.1 mph 0.00 in Snow Light Snow
6:16 AM 17.6 °F 0.5 °F 14.0 °F 86% 29.64 in 2.5 mi NW 21.9 mph - 0.00 in Snow Light Snow
6:40 AM 15.8 °F -1.1 °F 14.0 °F 93% 29.65 in 3.0 mi NW 19.6 mph - 0.00 in Snow Light Snow
6:53 AM 16.0 °F -0.9 °F 14.0 °F 92% 29.78 in 3.0 mi NW 19.6 mph - 0.00 in Snow Light Snow
7:24 AM 15.8 °F -1.5 °F 12.2 °F 86% 29.67 in 2.0 mi NW 20.7 mph - 0.00 in Snow Light Snow
7:44 AM 15.8 °F -0.6 °F 12.2 °F 86% 29.68 in 1.5 mi NW 18.4 mph - 0.00 in Snow Light Snow
7:53 AM 16.0 °F 0.1 °F 12.9 °F 88% 29.82 in 1.8 mi NW 17.3 mph - 0.00 in Snow Light Snow
8:00 AM 15.8 °F -0.2 °F 12.2 °F 86% 29.69 in 2.5 mi NW 17.3 mph - 0.00 in Snow Light Snow
8:10 AM 17.6 °F 1.7 °F 12.2 °F 79% 29.69 in 3.0 mi NW 18.4 mph - 0.00 in Snow Light Snow
8:39 AM 17.6 °F 0.5 °F 12.2 °F 79% 29.70 in 1.8 mi NW 21.9 mph - 0.00 in Snow Light Snow
8:53 AM 17.1 °F 0.6 °F 14.0 °F 88% 29.83 in 2.5 mi NW 19.6 mph - 0.00 in Snow Light Snow
9:05 AM 17.6 °F 1.7 °F 12.2 °F 79% 29.71 in 2.0 mi NW 18.4 mph - 0.00 in Snow Light Snow
9:14 AM 17.6 °F 0.5 °F 12.2 °F 79% 29.71 in 1.8 mi NW 21.9 mph - 0.00 in Snow Light Snow
9:31 AM 17.6 °F 1.3 °F 12.2 °F 79% 29.71 in 3.0 mi NW 19.6 mph - 0.00 in Snow Light Snow
9:53 AM 18.0 °F 0.9 °F 12.9 °F 81% 29.85 in 9.0 mi NW 21.9 mph - 0.00 in Snow Light Snow
10:00 AM 17.6 °F 0.9 °F 12.2 °F 79% 29.72 in 9.0 mi NW 20.7 mph - 0.00 in   Overcast
10:53 AM 18.0 °F 0.9 °F 12.0 °F 78% 29.86 in 10.0 mi NNW 21.9 mph - 0.00 in   Overcast
11:53 AM 18.0 °F 1.3 °F 12.0 °F 78% 29.90 in 10.0 mi NNW 20.7 mph - N/A   Mostly Cloudy
12:53 PM 18.0 °F 0.6 °F 10.0 °F 71% 29.89 in 10.0 mi NNW 23.0 mph - N/A   Overcast
1:53 PM 17.1 °F 0.6 °F 10.0 °F 74% 29.91 in 10.0 mi NNW 19.6 mph - N/A   Clear
2:53 PM 16.0 °F -0.4 °F 9.0 °F 74% 29.91 in - NNW 18.4 mph - N/A   Mostly Cloudy
3:53 PM 15.1 °F 1.1 °F 8.1 °F 74% 29.96 in - North 12.7 mph - N/A   Clear
4:53 PM 12.9 °F 0.7 °F 8.1 °F 81% 29.97 in - North 9.2 mph - N/A   Clear
5:53 PM 8.1 °F - 5.0 °F 87% 30.03 in - Calm Calm - N/A   Partly Cloudy
6:53 PM 9.0 °F -0.9 °F 6.1 °F 88% 30.05 in - North 5.8 mph - N/A   Mostly Cloudy
7:53 PM 7.0 °F -8.3 °F 3.9 °F 87% 30.07 in - NNW 11.5 mph - N/A   Clear
8:01 PM 6.8 °F -6.9 °F 3.2 °F 85% 29.87 in - NNW 9.2 mph - N/A   Scattered Clouds
9:53 PM 3.0 °F -4.4 °F -0.9 °F 84% 30.12 in - ENE 3.5 mph - N/A   Clear
10:53 PM -0.0 °F - -2.9 °F 88% 30.14 in - Calm Calm - N/A   Clear
11:53 PM -2.0 °F - -5.1 °F 87% 30.17 in - Calm Calm - N/A   Clear